Regional Weather Roundup
Issued by NWS Little Rock, AR

Home | Current Version | Previous Version | Text Only | Print | Product List | Glossary Off
Versions: 1 2 3 4 5 6 7 8 9 10 11 12 13 14 15 16 17 18 19 20 21 22 23 24 25 26 27 28 29 30 31 32 33 34 35 36 37 38 39 40 41 42 43 44 45 46 47 48 49 50

000
ASUS44 KLZK 121205
RWRLZK

WEATHER ROUNDUP FOR ARKANSAS
NATIONAL WEATHER SERVICE LITTLE ROCK AR
700 AM CDT SAT JUL 12 2014

NOTE: "FAIR" INDICATES FEW OR NO CLOUDS BELOW 12,000 FEET WITH NO
SIGNIFICANT WEATHER AND/OR OBSTRUCTIONS TO VISIBILITY.

ARZ001-003-010-029-121300-
NORTHWEST ARKANSAS

CITY           SKY/WX    TMP DP  RH WIND       PRES   REMARKS
FAYETTEVILLE   CLEAR     69  68  96 CALM      30.18S
6HR MIN TEMP:  66; 6HR MAX TEMP:  70;

FORT SMITH     CLEAR     75  73  93 NE7       30.15R
6HR MIN TEMP:  74; 6HR MAX TEMP:  79;

HARRISON       CLEAR     76  66  71 SW7       30.18R
6HR MIN TEMP:  72; 6HR MAX TEMP:  77;

BENTONVILLE    CLEAR     73  66  78 S5        30.18S
6HR MIN TEMP:  72; 6HR MAX TEMP:  75;

ROGERS         CLEAR     75  67  76 S10       30.18S
6HR MIN TEMP:  72; 6HR MAX TEMP:  75;

SILOAM SPGS    CLEAR     72  63  73 S7        30.18S
6HR MIN TEMP:  70; 6HR MAX TEMP:  75;

HIGHFILL       CLEAR     70  68  93 S3        30.17S
6HR MIN TEMP:  68; 6HR MAX TEMP:  73;

SPRINGDALE     CLEAR     72  68  88 S7        30.19S
$$

ARZ004-005-016-121300-
NORTH CENTRAL ARKANSAS

CITY           SKY/WX    TMP DP  RH WIND       PRES   REMARKS
BATESVILLE     MOSUNNY   75  72  88 SW5       30.16R
6HR MIN TEMP:  73; 6HR MAX TEMP:  77;

FLIPPIN        CLEAR     73  70  88 CALM      30.16R
6HR MIN TEMP:  72; 6HR MAX TEMP:  75;

MTN HOME       MOCLDY    73  73 100 S3        30.16R FOG
6HR MIN TEMP:  72; 6HR MAX TEMP:  75;

$$

ARZ040-041-121300-
WEST CENTRAL ARKANSAS

CITY           SKY/WX    TMP DP  RH WIND       PRES   REMARKS
MENA           CLEAR     72 N/A N/A CALM      30.19R
MOUNT IDA      FOG       71  70  96 CALM      30.16R VSB 1/2
6HR MIN TEMP:  70; 6HR MAX TEMP:  74;

$$

ARZ009-017-025-026-028-121300-
NORTHEAST ARKANSAS

CITY           SKY/WX    TMP DP  RH WIND       PRES   REMARKS
CORNING        FAIR      75  75 100 S3        30.16R FOG
JONESBORO      CLOUDY    76  73  91 CALM      30.16R
6HR MIN TEMP:  73; 6HR MAX TEMP:  76;

NEWPORT        PTSUNNY   75  74  97 S6        30.17R
6HR MIN TEMP:  73; 6HR MAX TEMP:  77;

WALNUT RIDGE   SUNNY     75  72  88 S3        30.15R
6HR MIN TEMP:  73; 6HR MAX TEMP:  75;

BLYTHEVILLE    PTSUNNY   74  73  97 SW3       30.17R FOG
6HR MIN TEMP:  72; 6HR MAX TEMP:  76;

$$

ARZ022-023-033-042-044-121300-
CENTRAL ARKANSAS

CITY           SKY/WX    TMP DP  RH WIND       PRES   REMARKS
LITTLE ROCK    PTCLDY    76  71  85 CALM      30.16R
6HR MIN TEMP:  75; 6HR MAX TEMP:  77;

N LITTLE ROCK    N/A     75  73  92 SW3       30.16R
6HR MIN TEMP:  74; 6HR MAX TEMP:  77;

JACKSONVILLE   PTCLDY    73  72  99 CALM      30.16R
6HR MIN TEMP:  71; 6HR MAX TEMP:  74;

SEARCY         SUNNY     74  74 100 CALM      30.17R FOG
6HR MIN TEMP:  72; 6HR MAX TEMP:  74;

HOT SPRINGS    CLEAR     73  70  90 CALM      30.16S
6HR MIN TEMP:  72; 6HR MAX TEMP:  78;

RUSSELLVILLE   CLEAR     75  73  93 CALM      30.15S FOG
6HR MIN TEMP:  73; 6HR MAX TEMP:  77;

CLINTON        CLOUDY    73  73 100 CALM      30.17R FOG
$$

ARZ036-121300-
EAST ARKANSAS

CITY           SKY/WX    TMP DP  RH WIND       PRES   REMARKS
WEST MEMPHIS   MOSUNNY   73  73 100 CALM      30.16R FOG
6HR MIN TEMP:  71; 6HR MAX TEMP:  74;

$$

ARZ050-053-066-070-073-121300-
SOUTHWEST ARKANSAS

CITY           SKY/WX    TMP DP  RH WIND       PRES   REMARKS
ARKADELPHIA    FAIR      72  72 100 CALM      30.16S FOG
6HR MIN TEMP:  71; 6HR MAX TEMP:  76;

CAMDEN         CLEAR     72  68  88 CALM      30.15S FOG
TEXARKANA      CLEAR     75  71  87 S5        30.15R
6HR MIN TEMP:  75; 6HR MAX TEMP:  78;

EL DORADO      CLEAR     71  70  96 CALM      30.16R
6HR MIN TEMP:  70; 6HR MAX TEMP:  74;

DE QUEEN       FOG       70  70 100 CALM      30.13R VSB 1/4
6HR MIN TEMP:  70; 6HR MAX TEMP:  74;

$$

ARZ056-057-069-121300-
SOUTHEAST ARKANSAS

CITY           SKY/WX    TMP DP  RH WIND       PRES   REMARKS
PINE BLUFF     CLEAR     73  71  93 CALM      30.16R
6HR MIN TEMP:  72; 6HR MAX TEMP:  75;

MONTICELLO     CLEAR     73  70  90 CALM      30.15S
6HR MIN TEMP:  71; 6HR MAX TEMP:  75;


$$





USA.gov is the U.S. government's official web portal to all federal, state and local government web resources and services.